Regional Weather Roundup
Issued by NWS

Home | Current Version | Previous Version | Text Only | Print | Product List | Glossary On
Versions: 1 2 3 4 5 6 7 8 9 10 11 12 13 14 15 16 17 18 19 20 21 22 23 24 25 26 27 28 29 30 31 32 33 34 35 36 37 38 39 40 41 42 43 44 45 46 47 48 49 50
000
ASUS42 KFFC 210910
RWRGA
WEATHER ROUNDUP FOR GEORGIA
NATIONAL WEATHER SERVICE PEACHTREE CITY GA
500 AM EDT MON AUG 21 2017

NOTE: "FAIR" INDICATES FEW OR NO CLOUDS BELOW 12,000 FEET WITH NO
SIGNIFICANT WEATHER AND/OR OBSTRUCTIONS TO VISIBILITY.

* = USE WITH CAUTION. THE STATIONS MARKED WITH AN ASTERISK MAY NOT
REPORT WEATHER SUCH AS PRECIPITATION, FOG, OR THUNDER AND ARE NOT
QUALITY CONTROLLED BY NWS.

THE REMARK "TC" DENOTES TEMPERATURE READING IN DEGREES CELSIUS.

GAZ001>058-211000-
NORTH GEORGIA

CITY           SKY/WX    TMP DP  RH WIND       PRES   REMARKS
ATLANTA        PTCLDY    77  70  79 SE3       30.16S
ATHENS         CLEAR     72  71  97 CALM      30.15F
CHAMBLEE       CLEAR     72  69  90 CALM      30.16S
PEACHTREE CITY CLEAR     70  69  97 CALM      30.15S FOG
ROME           CLEAR     71  70  96 N3        30.15R
WEST ATLANTA   CLEAR     72  71  97 CALM      30.15S
GAINESVILLE    CLEAR     73  68  84 NE3       30.20R
CARTERSVILLE   CLEAR     70  70 100 CALM      30.16R


CITY           SKY/WX    TMP DP  RH WIND       PRES   REMARKS
MARIETTA       CLEAR     73  69  87 CALM      30.16S
KENNESAW*        N/A    N/A N/A N/A MISG        N/A
CANTON*        CLEAR     70  70 100 CALM      30.19S
$$

GAZ059>098-102>109-211000-
CENTRAL GEORGIA

CITY           SKY/WX    TMP DP  RH WIND       PRES   REMARKS
AUGUSTA-BUSH   FOG       75  74  96 CALM      30.13S VSB 1/4
AUGUSTA-DANIEL CLEAR     79  74  84 SE3       30.15S
COLUMBUS       PTCLDY    78  70  76 E5        30.10F
MACON          CLEAR     73  70  90 E3        30.12F
ROBINS AFB     CLEAR     77  72  83 CALM      30.09R


CITY           SKY/WX    TMP DP  RH WIND       PRES   REMARKS
LAGRANGE*      PTCLDY    72  71  98 CALM      30.13S
SYLVANIA*      PTCLDY    76  76 100 CALM      30.14R FOG
MILLEDGEVILLE* CLEAR     75  73  94 CALM      30.14S
$$

GAZ099>101-110>166-211000-
SOUTH GEORGIA

CITY           SKY/WX    TMP DP  RH WIND       PRES   REMARKS
SAVANNAH       CLEAR     79  77  94 NW6       30.12R
VALDOSTA       CLEAR     71  70  96 CALM      30.09F
ALMA           CLEAR     72  71  97 N3        30.10S
ST SIMONS      PTCLDY    81  78  91 CALM      30.09S
FT STEWART     CLEAR     75  73  95 CALM      30.09R
ALBANY         CLEAR     76  73  91 CALM      30.11S
HUNTER AFB     CLEAR     77  76  94 NW3       30.08S
MOODY AFB      CLEAR     73  71  96 N3        30.08F
BRUNSWICK      FOG       77  73  88 CALM      30.10S VSB 1/2


CITY           SKY/WX    TMP DP  RH WIND       PRES   REMARKS
BAINBRIDGE*    MOCLDY    79  77  94 E3        30.08R
MOULTRIE*      CLEAR     73  72  94 CALM      30.10S
VIDALIA*       PTCLDY    75  73  94 CALM      30.12S
WAYCROSS*      CLEAR     72  69  90 CALM      30.10S
DOUGLAS*         N/A     73  72  94 CALM      30.12S
$$




USA.gov is the U.S. government's official web portal to all federal, state and local government web resources and services.